RCM 1

导读

RCM 1是加拿大(CA)研制的雷达卫星星座首星,于2019年6月12日成功发射。该卫星属于加拿大RadarSat Constellation Mission(RCM)项目,主要用于海事监测、北极观测、灾害管理与资源勘探,搭载先进合成孔径雷达,可全天时全天候获取地球观测数据。它与后续两颗卫星组网,重访能力显著提升,为全球气候变化研究、国土测绘和安全监测提供高分辨率遥感信息,设计服役寿命超7年,至今仍在轨稳定运行。

基本信息
目录编号:
44322
目录名称:
RCM 1
国际标识:
2019-033A
轨道中心:
EARTH
卫星名称:
RCM 1
卫星全名:
--
卫星状态:
在轨 (已飞行2651 天)
发射日期:
2019-06-12 UTC
国别 :
加拿大 (CA)
星等 :
--
该卫星已列入 空间交会检测服务 Space Conjunction Data Service (SCDS) ,当前飞行风险评估等级: 无高风险
轨道信息
数据来源 国际轨道数据
星历时间: 2026-09-14T07:12:36+0800
8小时前
查看轨道信息
半长轴: 6967.997km
偏心率: 0.0001501
轨道倾角: 97.760°
近地点辐角 90.125°
升交点赤经 263.159°
平近点角 300.134°
近地点: 588.814km
远地点: 590.906km
周期: 96.477分钟
每日圈数: 14.925911
详细信息
使用方式:
暂无
2D轨道图
3D轨道图
轨道高度分析图
轨道倾角分析图
轨道综合分析图
查看轨道综合分析图
交会数据列表
事件ID 空间交会对象 最接近时刻(TCA) 交会距离 交会风险概率(CRP) 交会风险指数(CRI) 操作
CDM_260915-225104-432206-973524
RCM 1 (44322)
2026-09-15T
22:51:47+0000
1.206 km
极远距离
1.432869E-5 中风险 0.58
CDM_260915-220304-432206-973524
RCM 1 (44322)
2026-09-15T
22:03:15+0000
1.819 km
极远距离
3.751565E-6 低风险 0.46
CDM_260915-203004-432206-054422
RCM 1 (44322)
2026-09-15T
20:30:21+0000
1.687 km
极远距离
3.086171E-6 低风险 0.45
CDM_260914-233701-302604-432226
RCM 1 (44322)
2026-09-14T
23:37:05+0000
2.296 km
极远距离
2.090521E-6 低风险 0.41
与全量物体交会距离演化趋势 订阅飞行安全评估服务
与全量物体交会风险概率演化趋势 订阅飞行安全评估服务